User: anonymous   Login
Location: Newark
(41.0400°S, 62.7845°W)
Time: 16:33:51
(UTC+00:00)
Language:

N. Korean satellite - Orbit

View from above orbital plane
View from above orbital plane
View from above satellite
View from above satellite

Ground track
Ground track

The orbit data is extracted from the following two-line orbital elements,

1 39026U 12072A   21334.06422844  .00005228  00000-0  17090-3 0  9992
2 39026  97.2568 323.1428 0035223 150.4124 209.9120 15.31545231498424
Epoch (UTC): 30 November 2021 01:32:29
Eccentricity: 0.0035223
inclination: 97.2568°
perigee height: 447 km
apogee height: 495 km
right ascension of ascending node: 323.1428°
argument of perigee: 150.4124°
revolutions per day: 15.31545231
mean anomaly at epoch: 209.9120°
orbit number at epoch: 49842

The dashed part of the orbit path shows where the satellite is in the earth's shadow,  

DLR